EW9115 Weather Reports


Display with metric or nautical units.
time (UTC)temp
F
wind
direction
speed
MPH
gust
MPH
rain 1hr
in
rain 24hr
in
rain mn
in
humidity
%
barometer
mb
20181017184506 56 22 1.0 3.0 0.00 0.11 0.01 67 1026.5
20181017183506 56 90 1.0 3.0 0.00 0.11 0.01 68 1026.5
20181017182506 56 180 1.0 4.0 0.00 0.11 0.01 66 1026.5
20181017181506 56 112 1.0 3.0 0.00 0.11 0.01 66 1026.7
20181017180506 56 157 1.0 3.0 0.00 0.11 0.01 69 1026.7
20181017175506 56 135 1.0 3.0 0.00 0.11 0.01 70 1026.8
20181017174506 56 112 2.0 4.0 0.00 0.11 0.01 71 1026.7
20181017173506 55 112 1.0 3.0 0.00 0.11 0.01 72 1026.7
20181017172517 55 112 2.0 6.0 0.00 0.11 0.01 73 1026.8
20181017171506 55 90 1.0 5.0 0.00 0.11 0.01 71 1026.8
20181017170506 55 45 2.0 4.0 0.00 0.11 0.01 72 1026.7
20181017165506 55 112 2.0 4.0 0.00 0.11 0.01 71 1027.0
20181017164506 55 45 1.0 4.0 0.00 0.11 0.01 71 1027.0
20181017163506 56 90 1.0 4.0 0.00 0.12 0.01 72 1027.2
20181017162506 56 112 1.0 2.0 0.00 0.12 0.01 73 1027.3
20181017161506 55 90 1.0 3.0 0.00 0.12 0.01 73 1027.4
20181017160506 55 90 1.0 2.0 0.00 0.12 0.01 74 1027.4
20181017155507 55 67 1.0 3.0 0.00 0.12 0.01 74 1027.3
20181017154506 55 112 1.0 4.0 0.00 0.12 0.01 76 1027.1
20181017153506 54 315 1.0 3.0 0.00 0.12 0.01 76 1026.8
20181017152506 54 292 2.0 4.0 0.00 0.12 0.01 77 1026.5
20181017151506 53 180 2.0 4.0 0.00 0.13 0.01 79 1026.6
20181017150506 53 0 1.0 3.0 0.00 0.16 0.01 79 1026.2
20181017145508 53 22 1.0 5.0 0.00 0.17 0.01 79 1026.3
20181017144506 52 337 2.0 4.0 0.00 0.19 0.01 79 1026.2
20181017143506 52 0 1.0 3.0 0.00 0.21 0.01 81 1026.3
20181017142506 52 337 1.0 3.0 0.00 0.22 0.01 81 1026.2
20181017141506 52 337 1.0 3.0 0.00 0.24 0.01 82 1026.1
20181017140506 52 337 1.0 3.0 0.00 0.26 0.01 82 1025.9
20181017135506 52 337 1.0 4.0 0.00 0.28 0.01 82 1025.7
20181017134506 52 337 1.0 3.0 0.00 0.29 0.01 82 1025.6
20181017133506 52 0 1.0 3.0 0.00 0.31 0.01 83 1025.6
20181017132506 51 0 1.0 3.0 0.00 0.33 0.01 83 1025.6
20181017131506 52 0 1.0 3.0 0.00 0.35 0.01 83 1025.6
20181017130505 52 0 1.0 3.0 0.00 0.37 0.01 83 1025.5
20181017125508 51 337 1.0 2.0 0.00 0.40 0.01 84 1025.2
20181017124505 51 0 1.0 2.0 0.00 0.41 0.01 84 1025.2
20181017123505 51 315 1.0 4.0 0.00 0.44 0.01 84 1025.0
20181017122505 51 315 1.0 2.0 0.00 0.46 0.01 84 1024.8
20181017121506 51 0 2.0 4.0 0.00 0.47 0.01 84 1024.7
20181017120506 52 0 1.0 3.0 0.00 0.49 0.01 83 1024.6
20181017115505 52 315 1.0 6.0 0.00 0.51 0.01 83 1024.5
20181017114506 51 0 1.0 3.0 0.00 0.52 0.01 84 1024.4
20181017113505 51 225 1.0 4.0 0.00 0.54 0.01 83 1024.5
20181017112505 51 0 1.0 4.0 0.00 0.56 0.01 84 1024.5
20181017111505 51 22 1.0 2.0 0.00 0.58 0.01 84 1024.7
20181017110506 51 0 1.0 3.0 0.00 0.59 0.01 84 1024.6
20181017105505 51 0 1.0 4.0 0.00 0.62 0.01 85 1024.6
20181017104508 51 0 1.0 3.0 0.00 0.65 0.01 85 1024.5
20181017103505 51 0.0 2.0 0.00 0.68 0.01 85 1024.4
20181017102506 51 0 1.0 3.0 0.00 0.70 0.01 84 1024.3
20181017101505 51 0 1.0 3.0 0.00 0.72 0.01 85 1023.9
20181017100508 51 0 1.0 3.0 0.00 0.74 0.01 86 1023.9
20181017095505 51 0 1.0 4.0 0.00 0.75 0.01 86 1023.9
20181017094505 51 22 1.0 5.0 0.00 0.77 0.01 86 1023.5
20181017093507 51 337 2.0 5.0 0.00 0.78 0.01 86 1023.8
20181017092507 51 337 1.0 3.0 0.00 0.80 0.01 87 1023.4
20181017091507 51 22 1.0 3.0 0.00 0.83 0.01 87 1023.5
20181017090507 51 0 1.0 3.0 0.00 0.86 0.01 87 1023.3
20181017085507 51 0 1.0 3.0 0.00 0.87 0.01 88 1023.5
20181017084509 51 22 1.0 3.0 0.00 0.87 0.01 88 1023.4
20181017083507 51 337 1.0 3.0 0.00 0.88 0.01 87 1023.4
20181017082508 51 337 1.0 3.0 0.00 0.89 0.01 87 1023.7
20181017081507 51 45 1.0 3.0 0.00 0.90 0.01 87 1023.5
20181017080507 51 0 1.0 3.0 0.01 0.91 0.01 87 1023.7
20181017075508 51 337 1.0 4.0 0.01 0.92 0.01 88 1023.6
20181017074507 51 45 1.0 3.0 0.01 0.94 0.01 87 1023.7
20181017073507 51 0 2.0 4.0 0.01 0.96 0.01 87 1023.5
20181017072507 51 22 1.0 4.0 0.01 0.98 0.01 87 1023.4
20181017071507 51 337 2.0 8.0 0.01 1.00 0.01 87 1023.6
20181017070536 51 0 2.0 5.0 0.00 1.01 0.00 87 1023.7
20181017065507 52 22 1.0 4.0 0.00 1.02 0.00 86 1023.5
20181017064508 52 22 1.0 5.0 0.00 1.03 0.00 86 1023.7
20181017063507 52 0 1.0 3.0 0.00 1.05 0.00 85 1023.7
20181017062507 52 22 1.0 3.0 0.00 1.07 0.00 85 1023.9
20181017061507 52 0 1.0 2.0 0.00 1.09 0.00 85 1023.9
20181017060507 52 0 1.0 4.0 0.00 1.10 0.00 85 1023.9
20181017055507 52 22 1.0 2.0 0.00 1.12 0.00 85 1024.1
20181017054507 52 0.0 1.0 0.00 1.13 0.00 85 1024.0
20181017053507 52 0.0 2.0 0.00 1.13 0.00 84 1024.2
20181017052508 52 22 1.0 2.0 0.00 1.13 0.00 84 1024.2
20181017051507 52 0 1.0 3.0 0.00 1.13 0.00 84 1024.1
20181017050507 52 22 2.0 4.0 0.00 1.13 0.00 84 1024.2
20181017045505 51 0.0 3.0 0.00 1.13 1.13 85 1024.2
20181017044505 51 337 1.0 3.0 0.00 1.13 1.13 85 1024.3
20181017043505 51 337 1.0 2.0 0.00 1.13 1.13 86 1024.3
20181017042505 51 22 1.0 3.0 0.00 1.13 1.13 87 1024.3
20181017041506 51 0 1.0 3.0 0.00 1.13 1.13 87 1024.1
20181017040506 51 0 1.0 3.0 0.00 1.13 1.13 87 1024.2
20181017035505 51 0.0 2.0 0.00 1.13 1.13 86 1024.2
20181017034505 51 0.0 2.0 0.00 1.13 1.13 86 1024.1
20181017033505 51 0 1.0 4.0 0.00 1.13 1.13 86 1024.0
20181017032505 51 0 1.0 3.0 0.00 1.13 1.13 86 1024.1
20181017031505 51 0 1.0 3.0 0.00 1.13 1.13 86 1023.9
20181017030505 51 337 1.0 2.0 0.00 1.13 1.13 87 1023.5
20181017025505 50 0.0 2.0 0.00 1.13 1.13 87 1023.3
20181017024508 50 337 2.0 4.0 0.00 1.13 1.13 88 1023.4
20181017023509 50 0 1.0 4.0 0.00 1.13 1.13 88 1023.2
20181017022507 50 337 1.0 2.0 0.00 1.13 1.13 89 1023.4
20181017021507 50 337 1.0 3.0 0.00 1.13 1.13 90 1023.5
20181017020507 50 0.0 2.0 0.00 1.13 1.13 90 1023.5
20181017015507 50 0.0 2.0 0.00 1.13 1.13 90 1023.4
20181017014507 50 0 2.0 4.0 0.00 1.13 1.13 90 1023.5
20181017013507 50 0 2.0 4.0 0.00 1.13 1.13 90 1023.7
20181017012507 50 0 1.0 3.0 0.00 1.13 1.13 90 1023.6
20181017011507 50 0 1.0 3.0 0.00 1.13 1.13 90 1023.4
20181017010507 49 0 1.0 4.0 0.00 1.13 1.13 90 1023.4
20181017005507 49 337 1.0 4.0 0.00 1.13 1.13 90 1023.3
20181017004507 49 0 1.0 2.0 0.00 1.13 1.13 91 1023.2
20181017003507 49 315 2.0 4.0 0.00 1.14 1.13 91 1023.2
20181017002507 49 337 2.0 4.0 0.00 1.14 1.13 91 1023.1
20181017001507 49 337 1.0 3.0 0.00 1.14 1.13 90 1022.9
20181017000507 49 337 1.0 3.0 0.00 1.14 1.13 91 1022.8
20181016235507 49 337 1.0 3.0 0.00 1.14 1.13 91 1022.8
20181016234507 49 0 1.0 4.0 0.00 1.14 1.13 91 1022.7
20181016233507 49 337 1.0 3.0 0.00 1.14 1.13 91 1022.5
20181016232507 49 90 1.0 3.0 0.01 1.14 1.13 91 1022.5
20181016231507 49 0 1.0 5.0 0.03 1.14 1.13 91 1022.4
20181016230507 49 337 1.0 3.0 0.05 1.14 1.13 91 1022.5
20181016225507 49 22 1.0 3.0 0.06 1.14 1.13 91 1022.3
20181016224507 49 22 1.0 3.0 0.07 1.14 1.13 90 1022.3
20181016223507 49 0 2.0 8.0 0.09 1.14 1.13 91 1022.4
20181016222509 49 0 1.0 4.0 0.09 1.13 1.12 91 1022.3
20181016221508 49 22 1.0 3.0 0.07 1.11 1.10 91 1022.3
20181016220507 49 337 1.0 3.0 0.05 1.10 1.08 91 1022.3
20181016215507 49 0.0 3.0 0.04 1.09 1.07 91 1022.9
20181016214507 49 337 1.0 4.0 0.03 1.09 1.06 90 1023.3
20181016213506 49 337 3.0 9.0 0.01 1.11 1.04 91 1023.6
20181016212507 49 315 3.0 7.0 0.00 1.11 1.03 91 1023.9
20181016211507 49 0 2.0 6.0 0.00 1.11 1.03 90 1023.8
20181016210507 49 315 4.0 9.0 0.00 1.15 1.03 90 1023.4
20181016205506 49 0 2.0 6.0 0.00 1.15 1.03 90 1023.1
20181016204507 49 337 2.0 4.0 0.00 1.17 1.03 90 1022.9
20181016203506 49 22 1.0 3.0 0.00 1.17 1.03 90 1022.7
20181016202508 49 0 2.0 4.0 0.01 1.21 1.03 90 1022.5
20181016201507 49 337 2.0 6.0 0.01 1.21 1.03 91 1022.1
20181016200506 49 0 2.0 6.0 0.01 1.21 1.03 91 1021.9
20181016195506 48 0 1.0 3.0 0.01 1.21 1.03 91 1022.0
20181016194506 48 0 1.0 2.0 0.01 1.21 1.03 91 1022.2
20181016193506 48 0.0 2.0 0.01 1.21 1.03 91 1022.5
20181016192506 47 337 1.0 3.0 0.00 1.20 1.02 91 1022.3
20181016191506 47 337 1.0 5.0 0.00 1.20 1.02 91 1022.3
20181016190506 47 22 1.0 2.0 0.00 1.20 1.02 92 1022.3
20181016185506 47 22 1.0 4.0 0.00 1.20 1.02 91 1022.6